Regional Weather Roundup
Issued by NWS Jackson, KY

Home | Current Version | Previous Version | Text Only | Print | Product List | Glossary On
Versions: 1 2 3 4 5 6 7 8 9 10 11 12 13 14 15 16 17 18 19 20 21 22 23 24 25 26 27 28 29 30 31 32 33 34 35 36 37 38 39 40 41 42 43 44 45 46 47 48 49 50
000
ASUS43 KJKL 240710
RWRJKL

EAST KENTUCKY HOURLY WEATHER ROUNDUP
NATIONAL WEATHER SERVICE JACKSON KY
300 AM EDT MON APR 24 2017

NOTE: "FAIR" INDICATES FEW OR NO CLOUDS BELOW 12,000 FEET WITH
NO SIGNIFICANT WEATHER AND/OR OBSTRUCTIONS TO VISIBILITY.

* THESE REPORTS ARE NOT UNDER NWS QUALITY CONTROL AND MAY NOT
  REPORT WEATHER SUCH AS PRECIPITATION AND FOG.

KYZ079-080-083-085-087-088-110-112-115-119-120-240800
...EASTERN KENTUCKY...

CITY           SKY/WX    TMP DP  RH WIND       PRES   REMARKS
JACKSON        CLOUDY    50  49  96 CALM      29.88F
LONDON         CLOUDY    52  48  86 NE9       29.86F
SOMERSET*      CLOUDY    52  50  93 E8        29.87F
MONTICELLO*    CLOUDY    53  52  96 N8        29.86F
WILLIAMSBURG*  CLOUDY    52  52 100 NE10      29.85S
MIDDLESBORO*   CLOUDY    53  52  97 CALM      29.85S
HARLAN APT*    CLOUDY    52  48  87 SW3       29.85F
PIKE CO APT*   CLOUDY    49  49 100 CALM      29.89R
BIG SANDY APT* CLOUDY    50  50 100 NE8       29.90S
MOREHEAD APT*  CLOUDY    55  43  62 E6        29.91S
ASHLAND*       CLOUDY    54  52  94 CALM      29.90F
$$

KYZ035-036-041-042-044-050-067-078-099-240800
...CENTRAL KENTUCKY...

CITY           SKY/WX    TMP DP  RH WIND       PRES   REMARKS
MT STERLING*   CLOUDY    54  46  76 NE6       29.90F
FLEMING/MASON* MOCLDY    55  44  67 NE5       29.93R
DANVILLE*      CLOUDY    52  48  87 E5        29.88F
LEXINGTON      CLOUDY    55  46  71 NE5       29.90F
FRANKFORT      CLOUDY    58  44  60 N3        29.89F
LOUISVILLE     CLOUDY    59  45  59 NE9       29.89F
LEBANON*         N/A     55  48  76 N6        29.87F
GLASGOW*       CLOUDY    54  49  84 NE9       29.84F
BOWLING GREEN  CLOUDY    54  50  86 NE8       29.85F
$$

KYZ091>093-OHZ055-061-077-WVZ005-015-034-035-042-240800
...SOUTHERN OHIO/WEST VIRGINIA...

CITY           SKY/WX    TMP DP  RH WIND       PRES   REMARKS
COVINGTON      MOCLDY    56  36  47 NE9       29.94F
COLUMBUS       PTCLDY    50  38  63 NE8       29.97F
DAYTON         PTCLDY    45  35  68 NE8       29.97F
WILMINGTON     CLEAR     45  39  79 NE10      29.94F
HUNTINGTON     LGT RAIN  53  50  89 NE5       29.91F
CHARLESTON     LGT RAIN  52  48  86 NE6       29.92F
PINEVILLE*     LGT RAIN  49  47  92 MISG      29.94F
BECKLEY        LGT RAIN  45  43  93 SE15G21   29.91F
BLUEFIELD      RAIN      43  42  97 VRB6      29.93S
LOGAN CO APT*  PTSUNNY   48  48 100 CALM      29.89F
$$

VAZ002-007-008-TNZ017-027-036-066-071-240800
...SOUTHWEST VIRGINIA/EAST TENNESSEE...

CITY           SKY/WX    TMP DP  RH WIND       PRES   REMARKS
WISE*          DRIZZLE   50  50 100 CALM      29.88R
JONESVILLE*    PTSUNNY   50  50 100 CALM      29.86R
ABINGDON*      CLOUDY    48  46  93 E17G23    29.87F
BRISTOL        CLOUDY    48  46  93 NE6       29.82F
MORRISTOWN*    PTSUNNY   52  50  93 E8        29.79F
SEVIERVILLE*   SUNNY     50  48  93 CALM      29.79F
KNOXVILLE      CLOUDY    53  50  89 N7        29.79F
LAFOLLETTE*    CLOUDY    54  52  94 CALM      29.86S
OAK RIDGE      CLOUDY    54  50  86 CALM      29.82S
CROSSVILLE     CLOUDY    51  50  96 NE5       29.82S FOG
NASHVILLE      CLOUDY    54  51  90 NE6       29.82F
$$

...KEY TO REMARKS...
VSB - VISIBILITY IN MILES
WCI - WIND CHILL INDEX
HX  - HEAT INDEX

$$



USA.gov is the U.S. government's official web portal to all federal, state and local government web resources and services.